Hereford, TX

11:57 AM CST on February 14, 2016 (GMT -0600)
Hereford Municipal

Weather History for KHRX - September, 2013

Change the Weather History Date:

Monday, September 9, 2013

  Actual Average (KAMA) Record (KAMA)
Temperature  
Mean Temperature 74 °F 72 °F  
Max Temperature 89 °F 85 °F 97 °F (2000)
Min Temperature 59 °F 59 °F 44 °F (1941)
Degree Days  
Heating Degree Days 0 0  
Month to date heating degree days 0  
Since 1 July heating degree days 1  
Cooling Degree Days 9 8  
Month to date cooling degree days 78  
Year to date cooling degree days 1270  
Growing Degree Days 24 (Base 50)    
Moisture  
Dew Point 54 °F    
Average Humidity 51    
Maximum Humidity 83    
Minimum Humidity 27    
Precipitation  
Precipitation 0.00 in 0.07 in 1.73 in (1894)
Month to date precipitation 0.62  
Year to date precipitation 15.89  
Snow  
Snow 0.00 in 0.00 in 0.00 in ()
Month to date snowfall 0.0  
Since 1 July snowfall 0.0  
Since 1 September snowfall 0.0  
Snow Depth -    
Sea Level Pressure  
Sea Level Pressure 30.03 in    
Wind  
Wind Speed 11 mph (South)    
Max Wind Speed 22 mph    
Max Gust Speed 29 mph    
Visibility 10 miles    
Events      
T = Trace of Precipitation, MM = Missing Value Source: NWS Daily Summary

Daily Weather History Graph

Daily Weather History Graph

Search for Another Location

Airport or City:

Trip Planner

Search our weather history database for the weather conditions in past years. The results will help you decide how hot, cold, wet, or windy it might be!

Date:

Astronomy

Sep. 09, 2013 Rise Set
Actual Time 7:28 AM CDT 8:04 PM CDT
Civil Twilight 7:02 AM CDT 8:29 PM CDT
Nautical Twilight 6:32 AM CDT 8:59 PM CDT
Astronomical Twilight 6:01 AM CDT 9:30 PM CDT
Moon 11:39 AM CDT (9/9) 10:35 PM CDT (9/9)
Length of Visible Light 13h 27m
Length of Day
12h 36m
Waxing Crescent, 19% of the Moon is Illuminated
Sep 9
Waxing Crescent
Sep 12
First Quarter
Sep 19
Full
Sep 26
Last Quarter
Oct 4
New

Hourly Weather History & Observations

Time (CDT) Temp. Heat Index Dew Point Humidity Pressure Visibility Wind Dir Wind Speed Gust Speed Precip Events Conditions
12:15 AM 72.7 °F - 50.4 °F 45% 30.04 in 10.0 mi SSE 11.5 mph - N/A   Clear
12:35 AM 72.5 °F - 50.5 °F 46% 30.04 in 10.0 mi SSE 11.5 mph 19.6 mph N/A   Clear
12:55 AM 70.5 °F - 50.7 °F 49% 30.04 in 10.0 mi SSE 9.2 mph - N/A   Clear
1:15 AM 70.7 °F - 51.6 °F 51% 30.04 in 10.0 mi SSE 9.2 mph - N/A   Clear
1:35 AM 70.2 °F - 52.3 °F 53% 30.04 in 10.0 mi SSE 9.2 mph - N/A   Clear
1:55 AM 69.1 °F - 52.7 °F 56% 30.04 in 10.0 mi SSE 9.2 mph - N/A   Clear
2:15 AM 68.9 °F - 53.2 °F 57% 30.05 in 10.0 mi South 9.2 mph - N/A   Clear
2:35 AM 68.5 °F - 53.8 °F 59% 30.05 in 10.0 mi South 8.1 mph - N/A   Clear
2:55 AM 67.6 °F - 54.5 °F 63% 30.04 in 10.0 mi South 6.9 mph - N/A   Clear
3:15 AM 67.1 °F - 54.5 °F 64% 30.04 in 10.0 mi South 5.8 mph - N/A   Clear
3:35 AM 65.7 °F - 54.5 °F 67% 30.04 in 10.0 mi South 5.8 mph - N/A   Clear
3:55 AM 64.6 °F - 54.3 °F 69% 30.04 in 10.0 mi South 6.9 mph - N/A   Clear
4:15 AM 64.0 °F - 54.5 °F 71% 30.04 in 10.0 mi South 6.9 mph - N/A   Clear
4:35 AM 63.5 °F - 54.5 °F 72% 30.04 in 10.0 mi South 5.8 mph - N/A   Clear
4:55 AM 62.6 °F - 54.5 °F 75% 30.04 in 10.0 mi South 6.9 mph - N/A   Clear
5:15 AM 63.1 °F - 54.9 °F 74% 30.04 in 10.0 mi South 6.9 mph - N/A   Clear
5:35 AM 63.3 °F - 55.4 °F 75% 30.04 in 10.0 mi South 5.8 mph - N/A   Clear
5:55 AM 62.8 °F - 55.4 °F 77% 30.04 in 10.0 mi South 5.8 mph - N/A   Clear
6:15 AM 62.2 °F - 55.4 °F 78% 30.04 in 10.0 mi South 5.8 mph - N/A   Clear
6:35 AM 62.2 °F - 55.4 °F 78% 30.04 in 10.0 mi SSW 5.8 mph - N/A   Clear
6:55 AM 62.1 °F - 55.4 °F 79% 30.05 in 10.0 mi SSW 4.6 mph - N/A   Clear
7:15 AM 61.9 °F - 55.4 °F 79% 30.05 in 10.0 mi SSW 4.6 mph - N/A   Clear
7:35 AM 59.9 °F - 54.9 °F 83% 30.05 in 10.0 mi South 5.8 mph - N/A   Clear
7:55 AM 60.1 °F - 54.7 °F 82% 30.05 in 10.0 mi South 5.8 mph - N/A   Clear
8:15 AM 62.2 °F - 55.8 °F 79% 30.05 in 10.0 mi South 5.8 mph - N/A   Clear
8:35 AM 65.3 °F - 56.7 °F 74% 30.06 in 10.0 mi South 9.2 mph - N/A   Clear
8:55 AM 68.9 °F - 59.0 °F 71% 30.07 in 10.0 mi South 12.7 mph - N/A   Clear
9:15 AM 71.1 °F - 59.5 °F 67% 30.07 in 10.0 mi SSW 12.7 mph - N/A   Clear
9:35 AM 72.9 °F - 59.9 °F 64% 30.07 in 10.0 mi South 15.0 mph - N/A   Clear
9:55 AM 74.3 °F - 60.3 °F 61% 30.07 in 10.0 mi SSW 15.0 mph 19.6 mph N/A   Clear
10:15 AM 75.6 °F - 60.4 °F 59% 30.07 in 10.0 mi SSW 13.8 mph 18.4 mph N/A   Clear
10:35 AM 75.9 °F - 60.6 °F 59% 30.07 in 10.0 mi SW 15.0 mph - N/A   Clear
10:55 AM 77.5 °F - 60.6 °F 56% 30.07 in 10.0 mi SSW 12.7 mph 19.6 mph N/A   Clear
11:15 AM 79.3 °F - 60.1 °F 52% 30.07 in 10.0 mi SW 13.8 mph 18.4 mph N/A   Clear
11:35 AM 80.8 °F 81.2 °F 59.0 °F 47% 30.07 in 10.0 mi SSW 11.5 mph 20.7 mph N/A   Clear
11:55 AM 81.5 °F 81.5 °F 57.9 °F 44% 30.07 in 10.0 mi SSW 13.8 mph 18.4 mph N/A   Clear
12:15 PM 82.4 °F 82.0 °F 57.0 °F 42% 30.07 in 10.0 mi SSW 12.7 mph 21.9 mph N/A   Clear
12:35 PM 82.4 °F 82.0 °F 57.0 °F 42% 30.07 in 10.0 mi SSW 15.0 mph 19.6 mph N/A   Clear
12:55 PM 85.1 °F 83.8 °F 55.0 °F 36% 30.06 in 10.0 mi South 15.0 mph 20.7 mph N/A   Scattered Clouds
1:15 PM 85.1 °F 83.6 °F 54.5 °F 35% 30.05 in 10.0 mi South 15.0 mph 21.9 mph N/A   Scattered Clouds
1:35 PM 85.6 °F 83.8 °F 53.1 °F 33% 30.05 in 10.0 mi South 12.7 mph 20.7 mph N/A   Scattered Clouds
1:55 PM 84.2 °F 82.8 °F 54.0 °F 35% 30.04 in 10.0 mi SSW 10.4 mph 21.9 mph N/A   Scattered Clouds
2:15 PM 87.1 °F 84.9 °F 53.2 °F 31% 30.03 in 10.0 mi South 10.4 mph 25.3 mph N/A   Scattered Clouds
2:35 PM 86.9 °F - 52.5 °F 31% 30.02 in 10.0 mi South 19.6 mph 26.5 mph N/A   Scattered Clouds
2:55 PM 87.8 °F - 51.6 °F 29% 30.01 in 10.0 mi South 17.3 mph 24.2 mph N/A   Clear
3:15 PM 88.2 °F - 50.9 °F 28% 30.01 in 10.0 mi SSE 13.8 mph 24.2 mph N/A   Scattered Clouds
3:35 PM 87.8 °F - 50.4 °F 27% 30.00 in 10.0 mi South 18.4 mph 23.0 mph N/A   Scattered Clouds
3:55 PM 89.2 °F - 50.7 °F 27% 30.00 in 10.0 mi South 17.3 mph 23.0 mph N/A   Scattered Clouds
4:15 PM 88.5 °F - 50.5 °F 27% 29.99 in 10.0 mi South 18.4 mph 27.6 mph N/A   Scattered Clouds
4:35 PM 88.2 °F - 50.9 °F 28% 29.98 in 10.0 mi SSE 15.0 mph 25.3 mph N/A   Scattered Clouds
4:55 PM 87.6 °F - 50.9 °F 28% 29.98 in 10.0 mi South 18.4 mph 26.5 mph N/A   Scattered Clouds
5:15 PM 88.0 °F - 51.6 °F 29% 29.98 in 10.0 mi SSE 18.4 mph 28.8 mph N/A   Clear
5:35 PM 87.1 °F - 50.7 °F 29% 29.98 in 10.0 mi South 15.0 mph 25.3 mph N/A   Clear
5:55 PM 86.9 °F - 51.1 °F 29% 29.98 in 10.0 mi South 19.6 mph 25.3 mph N/A   Scattered Clouds
6:15 PM 86.2 °F - 50.9 °F 30% 29.97 in 10.0 mi SSE 21.9 mph 27.6 mph N/A   Scattered Clouds
6:35 PM 85.3 °F - 51.4 °F 31% 29.97 in 10.0 mi SSE 18.4 mph 25.3 mph N/A   Clear
6:55 PM 84.6 °F - 51.3 °F 32% 29.96 in 10.0 mi South 17.3 mph 21.9 mph N/A   Clear
7:15 PM 83.8 °F - 51.3 °F 32% 29.96 in 10.0 mi South 13.8 mph - N/A   Clear
7:35 PM 82.6 °F - 50.9 °F 33% 29.97 in 10.0 mi South 16.1 mph - N/A   Clear
7:55 PM 81.1 °F 80.6 °F 53.2 °F 38% 29.98 in 10.0 mi SSE 15.0 mph 23.0 mph N/A   Clear
8:15 PM 80.1 °F 80.0 °F 53.6 °F 40% 29.99 in 10.0 mi SSE 13.8 mph 21.9 mph N/A   Clear
8:35 PM 78.8 °F - 53.6 °F 42% 30.00 in 10.0 mi SSE 11.5 mph - N/A   Clear
8:55 PM 77.9 °F - 53.4 °F 43% 30.00 in 10.0 mi SSE 10.4 mph - N/A   Clear
9:15 PM 77.2 °F - 53.1 °F 43% 30.01 in 10.0 mi SSE 10.4 mph - N/A   Clear
9:35 PM 76.6 °F - 53.1 °F 44% 30.02 in 10.0 mi SSE 9.2 mph - N/A   Clear
9:55 PM 75.6 °F - 53.1 °F 45% 30.03 in 10.0 mi SSE 11.5 mph - N/A   Clear
10:15 PM 74.7 °F - 53.6 °F 48% 30.03 in 10.0 mi SSE 11.5 mph 16.1 mph N/A   Clear
10:35 PM 73.9 °F - 53.8 °F 49% 30.04 in 10.0 mi SSE 8.1 mph - N/A   Clear
10:55 PM 72.0 °F - 53.6 °F 52% 30.05 in 10.0 mi SSE 8.1 mph - N/A   Clear
11:15 PM 71.6 °F - 54.3 °F 54% 30.05 in 10.0 mi SSE 8.1 mph - N/A   Clear
11:35 PM 71.6 °F - 54.5 °F 55% 30.05 in 10.0 mi SSE 8.1 mph - N/A   Clear
11:55 PM 70.7 °F - 55.0 °F 58% 30.06 in 10.0 mi South 6.9 mph - N/A   Clear